Location: Drocourt
(49.0571°N, 1.7669°E)
Time: 13:07:43
(UTC+00:00)

SR - Pass Details

Date: 16 April 2024
Orbit: 579 x 859 km, 66.7° (Epoch: 28 May)

Event Time Altitude Azimuth Distance (km) Brightness Sun altitude
Rises 08:27:26 0° 324° (NW) 3,112 ? 32.6°
Reaches altitude 10° 08:31:10 10° 352° (N) 2,120 ? 33.2°
Maximum altitude 08:33:25 13° 20° (NNE) 1,875 ? 33.5°
Drops below altitude 10° 08:35:36 10° 49° (NE) 2,039 ? 33.8°
Sets 08:39:02 0° 77° (ENE) 2,890 ? 34.3°
